User: anonymous   Login
Location: Balaclava NSW 2575, Australia
(34.4510°S, 150.4953°E)
Time: 16:25:22
(UTC+10:00)
Language:

UWE-3 - Orbit

View from above orbital plane
View from above orbital plane
View from above satellite
View from above satellite

Ground track
Ground track

The orbit data is extracted from the following two-line orbital elements,

1 39446U 13066AG  21209.83520454  .00000394  00000-0  58132-4 0  9996
2 39446  97.6392 184.0311 0071124  64.9157 295.9415 14.78816350413218
Epoch (UTC): 28 July 2021 20:02:41
Eccentricity: 0.0071124
inclination: 97.6392°
perigee height: 583 km
apogee height: 683 km
right ascension of ascending node: 184.0311°
argument of perigee: 64.9157°
revolutions per day: 14.78816350
mean anomaly at epoch: 295.9415°
orbit number at epoch: 41321

The dashed part of the orbit path shows where the satellite is in the earth's shadow,  

DLR